QPF
0.02 0.03 0.04 0.04 0.01 0.01 0.02 0.03 0.04 0.05 0.06 0.06 0.05 0.03 0.04 0.03 0.02 0.02 0.02 0.05 0.07 0.05 0.03 0.02 0.00 0.00 0.00 0.00 0.00 0.00 0.00 0.00 0.00 0.00 0.00 0.00 0.00 0.00 0.00 0.00 0.00 0.00 0.00 0.00
0.02 0.03 0.03 0.03 0.02 0.01 0.02 0.03 0.05 0.05 0.07 0.08 0.06 0.04 0.03 0.03 0.01 0.02 0.03 0.04 0.05 0.04 0.03 0.02 0.01 0.00 0.00 0.00 0.00 0.00 0.00 0.00 0.00 0.00 0.00 0.00 0.00 0.00 0.00 0.00 0.00 0.01 0.00 0.00
0.03 0.02 0.02 0.03 0.02 0.01 0.02 0.03 0.04 0.05 0.08 0.09 0.05 0.05 0.04 0.03 0.02 0.01 0.02 0.02 0.03 0.05 0.03 0.01 0.00 0.00 0.00 0.00 0.00 0.00 0.00 0.00 0.00 0.00 0.00 0.00 0.00 0.00 0.00 0.00 0.00 0.01 0.00 0.00
0.03 0.03 0.03 0.04 0.03 0.02 0.02 0.02 0.03 0.05 0.07 0.09 0.05 0.05 0.04 0.03 0.02 0.01 0.02 0.02 0.02 0.04 0.04 0.01 0.00 0.00 0.00 0.00 0.00 0.00 0.00 0.00 0.00 0.00 0.00 0.00 0.00 0.00 0.00 0.00 0.01 0.01 0.00 0.00
0.04 0.05 0.05 0.05 0.04 0.02 0.02 0.03 0.04 0.05 0.07 0.07 0.04 0.03 0.02 0.02 0.01 0.01 0.01 0.01 0.02 0.01 0.02 0.01 0.00 0.00 0.00 0.00 0.00 0.00 0.00 0.00 0.00 0.00 0.00 0.00 0.00 0.00 0.00 0.00 0.01 0.00 0.00 0.00
0.04 0.05 0.06 0.06 0.06 0.04 0.03 0.04 0.05 0.05 0.06 0.07 0.04 0.02 0.01 0.01 0.01 0.01 0.01 0.01 0.01 0.01 0.00 0.01 0.01 0.01 0.00 0.00 0.00 0.00 0.00 0.00 0.00 0.00 0.00 0.00 0.00 0.00 0.00 0.00 0.00 0.00 0.00 0.00
0.04 0.04 0.05 0.05 0.07 0.07 0.04 0.05 0.07 0.06 0.06 0.05 0.02 0.02 0.01 0.00 0.00 0.01 0.01 0.01 0.01 0.00 0.00 0.00 0.01 0.00 0.00 0.00 0.00 0.00 0.00 0.00 0.00 0.00 0.00 0.00 0.00 0.00 0.00 0.00 0.00 0.00 0.00 0.00
0.03 0.04 0.03 0.03 0.04 0.06 0.06 0.05 0.06 0.05 0.05 0.03 0.02 0.01 0.00 0.00 0.01 0.01 0.01 0.01 0.01 0.00 0.01 0.00 0.00 0.01 0.00 0.00 0.00 0.00 0.00 0.00 0.00 0.00 0.00 0.00 0.00 0.00 0.00 0.00 0.00 0.00 0.00 0.00
0.01 0.03 0.03 0.03 0.02 0.03 0.05 0.05 0.03 0.03 0.03 0.02 0.01 0.01 0.00 0.00 0.01 0.01 0.01 0.01 0.01 0.00 0.00 0.00 0.00 0.01 0.00 0.00 0.00 0.00 0.00 0.00 0.00 0.00 0.00 0.00 0.00 0.00 0.00 0.00 0.00 0.00 0.00 0.00
0.01 0.02 0.03 0.03 0.04 0.04 0.03 0.03 0.03 0.03 0.04 0.03 0.01 0.01 0.01 0.00 0.00 0.01 0.01 0.01 0.01 0.00 0.00 0.01 0.01 0.01 0.00 0.00 0.00 0.00 0.00 0.00 0.00 0.00 0.00 0.00 0.00 0.00 0.00 0.00 0.00 0.00 0.00 0.00
0.01 0.01 0.02 0.03 0.03 0.04 0.03 0.02 0.03 0.03 0.02 0.02 0.02 0.01 0.01 0.01 0.01 0.00 0.00 0.00 0.00 0.00 0.00 0.00 0.01 0.00 0.01 0.00 0.00 0.00 0.00 0.00 0.00 0.00 0.00 0.00 0.00 0.00 0.00 0.00 0.00 0.00 0.00 0.00
0.01 0.02 0.02 0.03 0.03 0.03 0.03 0.02 0.03 0.03 0.03 0.02 0.01 0.00 0.00 0.01 0.01 0.00 0.00 0.00 0.00 0.00 0.00 0.00 0.01 0.01 0.00 0.00 0.00 0.00 0.01 0.00 0.00 0.00 0.00 0.00 0.00 0.00 0.00 0.00 0.00 0.00 0.00 0.00
0.00 0.01 0.02 0.02 0.02 0.02 0.02 0.02 0.02 0.02 0.02 0.02 0.01 0.00 0.00 0.00 0.01 0.00 0.00 0.00 0.00 0.00 0.00 0.00 0.01 0.01 0.00 0.00 0.00 0.00 0.01 0.00 0.00 0.00 0.00 0.00 0.00 0.00 0.00 0.00 0.00 0.00 0.00 0.00
0.00 0.00 0.01 0.01 0.01 0.01 0.02 0.02 0.01 0.02 0.02 0.01 0.00 0.00 0.00 0.00 0.00 0.00 0.00 0.00 0.00 0.00 0.00 0.00 0.01 0.01 0.01 0.00 0.00 0.00 0.01 0.00 0.00 0.00 0.00 0.00 0.00 0.00 0.00 0.00 0.00 0.00 0.00 0.00
0.01 0.01 0.00 0.00 0.01 0.01 0.01 0.01 0.01 0.01 0.01 0.00 0.00 0.00 0.00 0.00 0.00 0.00 0.00 0.00 0.00 0.00 0.00 0.00 0.01 0.01 0.01 0.01 0.01 0.00 0.00 0.00 0.00 0.00 0.00 0.00 0.00 0.00 0.00 0.00 0.00 0.00 0.00 0.00
0.01 0.01 0.00 0.00 0.00 0.01 0.02 0.01 0.01 0.01 0.00 0.00 0.00 0.00 0.00 0.00 0.00 0.00 0.00 0.00 0.00 0.00 0.00 0.00 0.01 0.01 0.01 0.01 0.01 0.01 0.00 0.00 0.00 0.01 0.00 0.00 0.00 0.00 0.00 0.00 0.00 0.00 0.00 0.00
0.01 0.01 0.00 0.00 0.00 0.01 0.01 0.01 0.00 0.00 0.00 0.00 0.00 0.00 0.00 0.00 0.00 0.00 0.00 0.00 0.00 0.00 0.00 0.01 0.01 0.01 0.01 0.01 0.01 0.01 0.00 0.00 0.00 0.01 0.01 0.01 0.00 0.00 0.00 0.00 0.00 0.00 0.00 0.00
0.00 0.01 0.01 0.01 0.00 0.01 0.00 0.00 0.00 0.00 0.00 0.00 0.00 0.00 0.00 0.00 0.00 0.00 0.00 0.00 0.00 0.00 0.00 0.00 0.00 0.00 0.01 0.01 0.01 0.01 0.00 0.00 0.00 0.01 0.01 0.01 0.00 0.00 0.00 0.00 0.00 0.00 0.00 0.00
0.01 0.01 0.01 0.01 0.00 0.00 0.00 0.00 0.00 0.00 0.00 0.00 0.00 0.00 0.00 0.00 0.00 0.00 0.00 0.00 0.00 0.00 0.00 0.00 0.00 0.00 0.00 0.01 0.01 0.01 0.00 0.00 0.00 0.01 0.00 0.01 0.01 0.00 0.00 0.00 0.00 0.00 0.00 0.00
0.01 0.01 0.01 0.01 0.00 0.00 0.00 0.00 0.00 0.00 0.00 0.00 0.00 0.00 0.00 0.00 0.00 0.00 0.00 0.00 0.00 0.00 0.00 0.00 0.00 0.00 0.00 0.00 0.00 0.00 0.00 0.00 0.01 0.01 0.01 0.00 0.00 0.00 0.00 0.00 0.00 0.00 0.00 0.00
0.00 0.01 0.01 0.01 0.01 0.00 0.00 0.00 0.00 0.00 0.00 0.00 0.00 0.00 0.00 0.00 0.00 0.00 0.00 0.00 0.00 0.00 0.00 0.00 0.00 0.00 0.00 0.00 0.00 0.00 0.00 0.00 0.01 0.01 0.00 0.00 0.00 0.00 0.00 0.00 0.00 0.00 0.00 0.00
0.00 0.01 0.01 0.01 0.01 0.01 0.00 0.00 0.00 0.00 0.00 0.00 0.00 0.00 0.00 0.00 0.00 0.00 0.00 0.00 0.00 0.00 0.00 0.00 0.00 0.00 0.00 0.01 0.01 0.00 0.00 0.01 0.01 0.00 0.00 0.00 0.00 0.00 0.00 0.00 0.00 0.00 0.00 0.00
0.00 0.01 0.01 0.01 0.01 0.01 0.00 0.00 0.00 0.00 0.00 0.00 0.00 0.00 0.01 0.01 0.00 0.00 0.00 0.00 0.00 0.00 0.00 0.00 0.00 0.00 0.00 0.01 0.01 0.01 0.01 0.01 0.01 0.01 0.00 0.00 0.00 0.00 0.00 0.00 0.00 0.00 0.00 0.00
0.00 0.00 0.00 0.00 0.00 0.00 0.00 0.00 0.00 0.00 0.00 0.00 0.00 0.01 0.00 0.01 0.00 0.00 0.00 0.00 0.00 0.00 0.00 0.00 0.00 0.00 0.01 0.01 0.01 0.01 0.01 0.02 0.01 0.01 0.01 0.01 0.01 0.01 0.01 0.00 0.00 0.00 0.00 0.00
0.00 0.00 0.00 0.00 0.00 0.00 0.00 0.00 0.00 0.00 0.00 0.00 0.00 0.00 0.00 0.01 0.01 0.00 0.00 0.00 0.00 0.00 0.00 0.00 0.00 0.01 0.01 0.01 0.01 0.01 0.01 0.01 0.01 0.01 0.01 0.01 0.01 0.01 0.01 0.01 0.00 0.00 0.00 0.00
0.00 0.00 0.00 0.00 0.00 0.00 0.00 0.00 0.00 0.00 0.00 0.00 0.00 0.00 0.00 0.01 0.01 0.00 0.00 0.00 0.00 0.00 0.00 0.00 0.00 0.01 0.01 0.01 0.01 0.01 0.00 0.01 0.01 0.01 0.01 0.01 0.01 0.01 0.01 0.01 0.00 0.01 0.00 0.00
MSLP
1016.93 1017.43 1017.76 1017.96 1018.06 1018.12 1018.21 1018.34 1018.52 1018.73 1018.92 1019.05 1019.09 1019.02 1018.84 1018.59 1018.32 1018.08 1017.91 1017.84 1017.88 1018.00 1018.17 1018.35 1018.51 1018.62 1018.69 1018.72 1018.75 1018.80 1018.89 1019.03 1019.22 1019.44 1019.66 1019.85 1019.99 1020.07 1020.09 1020.04 1019.97 1019.87 1019.79 1019.73
1017.50 1017.89 1018.10 1018.19 1018.23 1018.28 1018.39 1018.59 1018.86 1019.17 1019.43 1019.60 1019.61 1019.47 1019.18 1018.80 1018.39 1018.04 1017.80 1017.71 1017.76 1017.94 1018.18 1018.43 1018.65 1018.80 1018.87 1018.89 1018.89 1018.92 1019.00 1019.15 1019.37 1019.65 1019.93 1020.19 1020.39 1020.49 1020.51 1020.45 1020.35 1020.23 1020.13 1020.08
1017.84 1018.10 1018.21 1018.23 1018.24 1018.30 1018.48 1018.78 1019.16 1019.55 1019.87 1020.04 1020.01 1019.77 1019.35 1018.81 1018.27 1017.80 1017.49 1017.38 1017.47 1017.71 1018.05 1018.40 1018.69 1018.90 1019.00 1019.02 1019.00 1019.00 1019.07 1019.22 1019.47 1019.79 1020.13 1020.45 1020.69 1020.83 1020.87 1020.81 1020.70 1020.57 1020.47 1020.42
1017.98 1018.13 1018.15 1018.13 1018.15 1018.27 1018.54 1018.95 1019.43 1019.89 1020.24 1020.38 1020.27 1019.90 1019.32 1018.61 1017.91 1017.33 1016.96 1016.84 1016.97 1017.29 1017.74 1018.20 1018.60 1018.88 1019.02 1019.06 1019.04 1019.03 1019.08 1019.24 1019.50 1019.84 1020.23 1020.59 1020.88 1021.06 1021.12 1021.08 1020.98 1020.87 1020.78 1020.75
1018.01 1018.06 1018.03 1018.01 1018.06 1018.27 1018.64 1019.14 1019.71 1020.21 1020.55 1020.63 1020.40 1019.86 1019.10 1018.21 1017.35 1016.65 1016.21 1016.09 1016.26 1016.68 1017.24 1017.83 1018.34 1018.72 1018.93 1019.01 1019.00 1018.99 1019.03 1019.18 1019.44 1019.80 1020.21 1020.61 1020.94 1021.17 1021.27 1021.27 1021.20 1021.12 1021.06 1021.06
1018.01 1018.00 1017.94 1017.94 1018.06 1018.35 1018.81 1019.40 1020.02 1020.53 1020.82 1020.79 1020.41 1019.69 1018.72 1017.65 1016.63 1015.81 1015.31 1015.17 1015.39 1015.90 1016.57 1017.29 1017.93 1018.41 1018.71 1018.85 1018.87 1018.87 1018.91 1019.05 1019.31 1019.67 1020.09 1020.52 1020.89 1021.17 1021.33 1021.38 1021.37 1021.33 1021.31 1021.35
1018.05 1017.99 1017.94 1017.97 1018.16 1018.54 1019.08 1019.72 1020.35 1020.83 1021.03 1020.87 1020.32 1019.40 1018.24 1016.99 1015.81 1014.89 1014.32 1014.17 1014.43 1015.01 1015.78 1016.62 1017.38 1017.98 1018.37 1018.59 1018.66 1018.68 1018.73 1018.87 1019.12 1019.48 1019.91 1020.36 1020.78 1021.10 1021.32 1021.44 1021.49 1021.51 1021.54 1021.63
1018.11 1018.04 1018.02 1018.11 1018.37 1018.81 1019.40 1020.06 1020.67 1021.07 1021.16 1020.85 1020.13 1019.04 1017.70 1016.29 1014.99 1013.96 1013.34 1013.18 1013.45 1014.08 1014.93 1015.86 1016.73 1017.44 1017.94 1018.24 1018.38 1018.45 1018.52 1018.67 1018.92 1019.28 1019.72 1020.19 1020.63 1021.01 1021.29 1021.47 1021.59 1021.67 1021.76 1021.88
1018.17 1018.12 1018.13 1018.28 1018.60 1019.09 1019.70 1020.35 1020.89 1021.20 1021.17 1020.72 1019.84 1018.61 1017.14 1015.61 1014.22 1013.13 1012.46 1012.27 1012.55 1013.20 1014.10 1015.09 1016.04 1016.84 1017.44 1017.82 1018.05 1018.18 1018.30 1018.47 1018.73 1019.10 1019.55 1020.03 1020.51 1020.92 1021.26 1021.51 1021.69 1021.83 1021.96 1022.12
1018.14 1018.14 1018.21 1018.42 1018.78 1019.29 1019.89 1020.49 1020.95 1021.15 1021.00 1020.43 1019.45 1018.12 1016.58 1015.00 1013.57 1012.44 1011.75 1011.54 1011.79 1012.43 1013.33 1014.35 1015.34 1016.21 1016.88 1017.36 1017.67 1017.88 1018.06 1018.28 1018.57 1018.96 1019.41 1019.92 1020.42 1020.87 1021.26 1021.56 1021.79 1021.98 1022.15 1022.32
1017.99 1018.04 1018.18 1018.44 1018.83 1019.33 1019.88 1020.40 1020.77 1020.87 1020.62 1019.97 1018.93 1017.58 1016.04 1014.47 1013.06 1011.94 1011.24 1011.00 1011.22 1011.81 1012.68 1013.68 1014.67 1015.57 1016.30 1016.86 1017.26 1017.56 1017.81 1018.09 1018.43 1018.84 1019.32 1019.83 1020.35 1020.84 1021.26 1021.61 1021.88 1022.11 1022.30 1022.49
1017.69 1017.82 1018.02 1018.31 1018.70 1019.16 1019.64 1020.07 1020.32 1020.32 1020.00 1019.31 1018.28 1016.97 1015.50 1014.02 1012.67 1011.61 1010.93 1010.67 1010.83 1011.36 1012.14 1013.08 1014.03 1014.93 1015.69 1016.31 1016.79 1017.18 1017.52 1017.87 1018.26 1018.71 1019.21 1019.75 1020.29 1020.79 1021.24 1021.62 1021.93 1022.18 1022.40 1022.60
1017.30 1017.50 1017.75 1018.05 1018.41 1018.80 1019.18 1019.48 1019.62 1019.53 1019.16 1018.47 1017.49 1016.29 1014.95 1013.60 1012.38 1011.40 1010.76 1010.49 1010.59 1011.02 1011.70 1012.54 1013.42 1014.27 1015.04 1015.70 1016.25 1016.73 1017.16 1017.59 1018.04 1018.53 1019.06 1019.62 1020.17 1020.69 1021.16 1021.57 1021.91 1022.19 1022.43 1022.65
1016.91 1017.17 1017.44 1017.73 1018.02 1018.30 1018.55 1018.71 1018.72 1018.54 1018.12 1017.46 1016.58 1015.51 1014.35 1013.18 1012.12 1011.26 1010.67 1010.39 1010.43 1010.76 1011.31 1012.02 1012.80 1013.59 1014.34 1015.02 1015.63 1016.18 1016.70 1017.20 1017.72 1018.26 1018.82 1019.39 1019.95 1020.49 1020.98 1021.42 1021.79 1022.11 1022.38 1022.62
1016.62 1016.92 1017.18 1017.40 1017.59 1017.73 1017.81 1017.80 1017.67 1017.39 1016.95 1016.33 1015.55 1014.65 1013.68 1012.71 1011.83 1011.10 1010.58 1010.31 1010.29 1010.51 1010.93 1011.50 1012.16 1012.87 1013.58 1014.27 1014.92 1015.54 1016.13 1016.70 1017.28 1017.86 1018.45 1019.04 1019.62 1020.17 1020.68 1021.15 1021.57 1021.94 1022.25 1022.53
1016.50 1016.80 1017.01 1017.13 1017.17 1017.14 1017.02 1016.83 1016.55 1016.17 1015.70 1015.12 1014.45 1013.71 1012.94 1012.18 1011.47 1010.88 1010.43 1010.17 1010.10 1010.21 1010.51 1010.94 1011.49 1012.11 1012.78 1013.46 1014.13 1014.80 1015.46 1016.10 1016.73 1017.35 1017.97 1018.57 1019.16 1019.73 1020.28 1020.78 1021.25 1021.67 1022.04 1022.38
1016.57 1016.82 1016.94 1016.93 1016.79 1016.56 1016.24 1015.85 1015.41 1014.93 1014.42 1013.88 1013.31 1012.72 1012.13 1011.55 1011.02 1010.56 1010.18 1009.93 1009.82 1009.85 1010.03 1010.35 1010.79 1011.34 1011.95 1012.62 1013.31 1014.02 1014.72 1015.41 1016.09 1016.74 1017.38 1018.00 1018.61 1019.20 1019.77 1020.32 1020.84 1021.32 1021.76 1022.15
1016.75 1016.92 1016.91 1016.73 1016.41 1015.97 1015.45 1014.88 1014.30 1013.73 1013.18 1012.66 1012.18 1011.72 1011.29 1010.87 1010.48 1010.13 1009.83 1009.60 1009.46 1009.43 1009.52 1009.75 1010.10 1010.58 1011.15 1011.80 1012.50 1013.23 1013.97 1014.70 1015.41 1016.09 1016.75 1017.38 1018.00 1018.61 1019.21 1019.80 1020.37 1020.91 1021.41 1021.86
1016.91 1016.96 1016.81 1016.47 1015.97 1015.34 1014.65 1013.93 1013.23 1012.59 1012.02 1011.53 1011.11 1010.76 1010.45 1010.17 1009.89 1009.64 1009.40 1009.19 1009.04 1008.97 1009.01 1009.17 1009.47 1009.89 1010.43 1011.06 1011.76 1012.51 1013.27 1014.02 1014.74 1015.44 1016.11 1016.75 1017.38 1018.01 1018.63 1019.25 1019.85 1020.43 1020.98 1021.48
1016.90 1016.82 1016.53 1016.04 1015.39 1014.63 1013.81 1012.99 1012.23 1011.55 1010.97 1010.52 1010.17 1009.90 1009.68 1009.50 1009.32 1009.14 1008.95 1008.78 1008.63 1008.55 1008.56 1008.68 1008.94 1009.32 1009.84 1010.45 1011.15 1011.90 1012.66 1013.41 1014.14 1014.84 1015.51 1016.16 1016.79 1017.42 1018.05 1018.69 1019.31 1019.92 1020.49 1021.01
1016.62 1016.42 1016.01 1015.41 1014.66 1013.82 1012.94 1012.08 1011.30 1010.63 1010.09 1009.67 1009.38 1009.18 1009.04 1008.93 1008.82 1008.69 1008.55 1008.41 1008.29 1008.21 1008.21 1008.32 1008.56 1008.92 1009.42 1010.01 1010.69 1011.42 1012.17 1012.91 1013.63 1014.32 1014.98 1015.62 1016.25 1016.88 1017.50 1018.13 1018.76 1019.36 1019.93 1020.44
1016.02 1015.72 1015.23 1014.57 1013.78 1012.93 1012.06 1011.23 1010.49 1009.86 1009.38 1009.03 1008.79 1008.65 1008.57 1008.51 1008.44 1008.36 1008.26 1008.15 1008.06 1008.00 1008.02 1008.13 1008.36 1008.72 1009.18 1009.76 1010.40 1011.10 1011.81 1012.52 1013.21 1013.88 1014.52 1015.15 1015.76 1016.37 1016.98 1017.59 1018.19 1018.77 1019.30 1019.78
1015.18 1014.80 1014.26 1013.59 1012.83 1012.02 1011.22 1010.47 1009.82 1009.28 1008.88 1008.60 1008.42 1008.33 1008.28 1008.25 1008.22 1008.18 1008.11 1008.04 1007.98 1007.95 1007.99 1008.12 1008.35 1008.69 1009.13 1009.67 1010.26 1010.90 1011.57 1012.23 1012.87 1013.51 1014.12 1014.72 1015.31 1015.90 1016.49 1017.07 1017.63 1018.16 1018.64 1019.06
1014.20 1013.79 1013.24 1012.60 1011.89 1011.18 1010.48 1009.85 1009.32 1008.89 1008.57 1008.36 1008.24 1008.19 1008.17 1008.16 1008.15 1008.13 1008.10 1008.07 1008.05 1008.06 1008.13 1008.28 1008.51 1008.83 1009.24 1009.71 1010.24 1010.81 1011.40 1012.00 1012.59 1013.17 1013.75 1014.33 1014.90 1015.46 1016.02 1016.56 1017.08 1017.55 1017.97 1018.32
1013.27 1012.83 1012.30 1011.71 1011.09 1010.48 1009.91 1009.41 1008.99 1008.67 1008.44 1008.29 1008.21 1008.18 1008.18 1008.19 1008.20 1008.20 1008.21 1008.21 1008.24 1008.29 1008.40 1008.56 1008.79 1009.09 1009.45 1009.86 1010.31 1010.79 1011.29 1011.81 1012.34 1012.87 1013.41 1013.95 1014.50 1015.05 1015.58 1016.08 1016.55 1016.96 1017.31 1017.59
1012.50 1012.06 1011.55 1011.02 1010.48 1009.98 1009.52 1009.13 1008.81 1008.58 1008.41 1008.31 1008.26 1008.25 1008.25 1008.27 1008.30 1008.33 1008.37 1008.42 1008.50 1008.60 1008.74 1008.92 1009.15 1009.41 1009.72 1010.05 1010.42 1010.81 1011.22 1011.65 1012.10 1012.58 1013.08 1013.60 1014.13 1014.65 1015.16 1015.63 1016.05 1016.41 1016.70 1016.92
Thickness
5706 5695 5687 5692 5697 5697 5694 5689 5687 5694 5707 5705 5701 5704 5710 5717 5718 5718 5718 5719 5721 5724 5730 5732 5734 5734 5733 5732 5731 5730 5729 5727 5726 5724 5722 5720 5718 5718 5718 5717 5716 5716 5715 5713
5690 5685 5694 5699 5700 5697 5692 5686 5685 5693 5704 5703 5698 5701 5710 5715 5716 5719 5719 5719 5721 5723 5726 5728 5730 5730 5730 5730 5729 5728 5727 5726 5726 5724 5722 5720 5718 5717 5716 5715 5715 5714 5714 5713
5684 5689 5699 5696 5692 5689 5688 5685 5686 5689 5696 5700 5696 5693 5703 5712 5717 5720 5722 5722 5723 5724 5724 5725 5726 5727 5727 5727 5727 5728 5726 5726 5725 5723 5722 5719 5717 5715 5714 5713 5712 5712 5712 5712
5685 5692 5694 5691 5688 5689 5681 5693 5694 5691 5683 5678 5688 5675 5695 5705 5710 5715 5719 5720 5722 5724 5725 5726 5726 5726 5726 5727 5727 5726 5725 5725 5724 5723 5721 5718 5714 5711 5711 5710 5710 5711 5711 5710
5682 5688 5688 5685 5688 5691 5687 5696 5692 5688 5681 5676 5681 5677 5687 5701 5703 5712 5719 5722 5723 5725 5726 5726 5727 5727 5728 5727 5726 5725 5724 5723 5723 5722 5721 5718 5714 5712 5710 5710 5709 5709 5709 5709
5685 5692 5691 5690 5694 5695 5693 5689 5683 5677 5673 5665 5676 5675 5682 5695 5709 5716 5721 5724 5726 5727 5727 5727 5728 5728 5727 5726 5725 5724 5722 5722 5721 5720 5719 5717 5714 5712 5710 5709 5708 5707 5707 5707
5677 5684 5691 5695 5686 5688 5687 5673 5659 5656 5654 5659 5676 5676 5687 5712 5721 5725 5726 5727 5729 5729 5728 5727 5726 5725 5724 5724 5723 5723 5721 5720 5719 5719 5718 5717 5715 5712 5710 5709 5707 5706 5705 5704
5666 5666 5683 5690 5687 5680 5679 5674 5657 5649 5650 5658 5672 5674 5698 5722 5728 5731 5732 5732 5731 5729 5729 5729 5729 5727 5726 5725 5723 5722 5721 5720 5719 5718 5717 5716 5715 5712 5710 5709 5707 5706 5704 5704
5665 5668 5688 5693 5694 5687 5675 5670 5673 5661 5660 5658 5666 5682 5705 5723 5725 5728 5729 5730 5730 5731 5731 5730 5729 5728 5727 5726 5725 5724 5722 5720 5718 5718 5717 5715 5714 5712 5710 5709 5707 5706 5705 5704
5678 5670 5682 5689 5691 5687 5684 5676 5665 5659 5652 5652 5665 5676 5687 5709 5717 5723 5726 5728 5730 5732 5731 5731 5730 5729 5728 5727 5725 5724 5723 5721 5719 5717 5716 5715 5713 5712 5710 5709 5707 5705 5704 5703
5683 5670 5673 5681 5680 5677 5676 5673 5667 5659 5659 5653 5655 5675 5709 5714 5721 5724 5727 5731 5732 5732 5732 5731 5731 5730 5728 5726 5724 5723 5721 5720 5718 5717 5715 5714 5712 5711 5709 5708 5706 5705 5703 5702
5680 5668 5662 5673 5685 5689 5684 5678 5670 5660 5658 5658 5658 5677 5722 5722 5725 5727 5729 5731 5733 5734 5733 5732 5730 5728 5726 5725 5723 5722 5721 5719 5718 5717 5715 5713 5711 5709 5707 5706 5705 5704 5702 5700
5681 5668 5657 5661 5669 5679 5679 5679 5676 5669 5660 5656 5658 5681 5720 5722 5724 5727 5729 5730 5731 5732 5731 5729 5727 5725 5725 5724 5723 5722 5721 5720 5718 5716 5713 5711 5709 5708 5706 5704 5703 5702 5700 5698
5690 5672 5665 5660 5666 5674 5675 5677 5677 5671 5660 5660 5668 5684 5707 5716 5719 5724 5727 5729 5729 5729 5729 5728 5726 5725 5725 5725 5724 5722 5721 5720 5717 5714 5712 5710 5708 5707 5705 5703 5701 5700 5698 5696
5689 5674 5675 5677 5683 5682 5681 5681 5679 5675 5675 5671 5682 5689 5705 5715 5720 5724 5727 5727 5727 5727 5727 5727 5727 5726 5725 5724 5723 5722 5720 5718 5717 5713 5711 5710 5708 5706 5703 5701 5699 5697 5695 5693
5684 5676 5675 5676 5682 5682 5680 5684 5683 5682 5683 5683 5687 5694 5714 5720 5721 5722 5724 5725 5725 5727 5728 5729 5728 5727 5726 5725 5724 5723 5720 5718 5716 5713 5710 5709 5706 5703 5701 5699 5696 5694 5692 5690
5676 5673 5666 5663 5675 5677 5672 5686 5687 5687 5692 5692 5689 5702 5715 5716 5718 5721 5724 5725 5726 5728 5729 5729 5730 5730 5729 5728 5727 5725 5722 5719 5715 5712 5710 5707 5704 5701 5699 5697 5693 5691 5689 5686
5676 5669 5660 5659 5666 5658 5681 5701 5701 5696 5699 5702 5705 5711 5716 5717 5720 5724 5727 5727 5728 5730 5730 5731 5731 5731 5731 5730 5728 5725 5721 5718 5714 5711 5708 5706 5703 5700 5696 5693 5691 5688 5685 5683
5681 5671 5658 5653 5655 5664 5686 5700 5699 5695 5697 5709 5708 5712 5716 5719 5719 5721 5728 5730 5731 5733 5733 5734 5734 5733 5731 5729 5727 5723 5719 5716 5713 5710 5708 5705 5702 5698 5694 5691 5688 5685 5682 5680
5674 5672 5660 5652 5655 5657 5682 5703 5708 5702 5692 5712 5712 5712 5713 5713 5702 5711 5727 5730 5732 5734 5733 5733 5732 5731 5728 5727 5725 5720 5717 5714 5712 5711 5708 5705 5701 5697 5693 5690 5686 5683 5680 5677
5661 5659 5655 5652 5655 5666 5692 5702 5704 5684 5690 5714 5715 5714 5713 5710 5712 5719 5726 5728 5730 5730 5731 5731 5730 5727 5726 5724 5722 5718 5715 5714 5714 5710 5706 5702 5698 5695 5692 5687 5683 5679 5676 5672
5661 5655 5652 5650 5652 5664 5698 5696 5692 5697 5710 5713 5714 5715 5713 5714 5717 5719 5722 5723 5725 5725 5726 5726 5724 5722 5722 5721 5719 5715 5713 5714 5710 5706 5702 5698 5694 5691 5688 5682 5678 5675 5671 5667
5665 5669 5666 5666 5672 5688 5694 5698 5705 5707 5708 5711 5712 5714 5713 5712 5713 5715 5716 5717 5718 5719 5720 5720 5719 5717 5716 5716 5715 5712 5711 5708 5705 5702 5698 5694 5690 5686 5683 5679 5674 5669 5666 5663
5665 5670 5667 5666 5676 5687 5693 5698 5703 5706 5707 5710 5711 5711 5711 5709 5710 5710 5710 5710 5711 5712 5713 5713 5713 5711 5710 5710 5710 5709 5707 5704 5701 5697 5693 5688 5684 5680 5677 5674 5671 5666 5663 5659
5665 5664 5663 5665 5677 5684 5691 5694 5699 5702 5704 5705 5706 5706 5706 5705 5704 5704 5703 5704 5704 5706 5706 5707 5706 5705 5704 5704 5703 5703 5701 5699 5694 5691 5687 5683 5680 5676 5672 5669 5667 5665 5664 5662
5661 5663 5664 5667 5678 5679 5684 5692 5696 5697 5698 5699 5699 5698 5699 5699 5698 5698 5697 5697 5698 5698 5699 5699 5698 5698 5697 5697 5696 5696 5695 5692 5688 5684 5680 5677 5673 5670 5667 5663 5660 5659 5658 5656